[[{"header":{"parameterUnit":"m.s-1","parameterCategory":1,"la1":30.2991,"la2":30.254,"lo1":-89.0895,"lo2":-89.0444,"dy":0.0017,"dx":0.0017,"nx":28,"ny":28,"refTime":"2025-08-04T03:00:00:Z","depth":0,"parameterNumber":2,"parameterNumberName":"U-component_of_WINDS"},"data":[0,0,0,0,0,0,0,0,0,0,0,0,0,0,0,0,0,0,0,0,0,0,0,0,0,0,0,0,0,0,0,0,0,0,0,0,0,0,0,0,0,0,0,0,0,0,0,0,0,0,0,0,0,0,0,0,0,0,-3.7992,-3.7993,0,-3.8077,-3.8078,-3.8079,-3.8024,-3.8022,-3.8019,-3.8017,-3.81,-3.8104,-3.8109,0,0,0,0,0,0,0,0,0,0,0,0,0,-3.7778,-3.7782,-3.7992,-3.7993,-3.7994,-3.8077,-3.8078,-3.8079,-3.8025,-3.8022,-3.8019,-3.8016,-3.8098,-3.8104,-3.8109,0,0,0,0,0,0,0,0,0,0,0,0,0,-3.7868,-3.7784,-3.7991,-3.7977,-3.7976,-3.8076,-3.8078,-3.8079,-3.8025,-3.8022,-3.8018,-3.8014,-3.8097,-3.8103,-3.811,-3.8228,0,0,-3.8131,-3.8134,0,0,0,0,0,0,0,0,-3.7863,-3.7876,-3.7978,-3.7978,-3.7978,-3.8036,-3.8033,-3.8129,-3.8026,-3.8007,-3.8017,-3.8013,-3.8081,-3.8089,-3.8113,-3.8231,-3.8235,-3.8131,-3.8136,-3.8138,-3.814,0,0,0,0,0,0,0,-3.7857,-3.7872,-3.8025,-3.798,-3.7979,-3.7965,-3.7973,-3.8051,-3.8064,-3.8008,-3.8004,-3.8016,-3.8081,-3.8107,-3.8115,-3.8236,-3.8131,-3.8137,-3.8141,-3.8144,-3.8452,-3.8456,0,0,0,0,0,0,-3.7852,-3.7867,-3.8022,-3.8028,-3.791,-3.7972,-3.7981,-3.8021,-3.8063,-3.8066,-3.8019,-3.8013,-3.8097,-3.8107,-3.8118,-3.8255,-3.8138,-3.8145,-3.8149,-3.8448,-3.8453,-3.8457,0,0,0,0,0,0,-3.7848,-3.7867,-3.8019,-3.7946,-3.7965,-3.7979,-3.8025,-3.8025,-3.8051,-3.8071,-3.8073,-3.8043,-3.8095,-3.8108,-3.82,-3.8257,-3.8148,-3.8154,-3.8443,-3.845,-3.8455,-3.8533,0,0,0,0,0,0,-3.7842,-3.7865,-3.7911,-3.7948,-3.7969,-3.8102,-3.8028,-3.8029,-3.8063,-3.8056,-3.8095,-3.8097,-3.8093,-3.819,-3.8207,-3.8265,-3.8159,-3.8438,-3.8446,-3.8453,-3.8525,-3.8541,-3.8554,0,0,0,0,0,-3.7835,-3.7929,-3.7914,-3.7933,-3.8027,-3.8105,-3.8117,-3.8111,-3.8068,-3.8113,-3.8126,-3.8096,-3.825,-3.82,-3.8219,-3.8279,-3.8434,-3.8444,-3.8453,-3.8518,-3.8538,-3.8554,0,0,0,0,0,0,-3.7897,-3.7934,-3.7917,-3.8027,-3.8063,-3.8096,-3.8152,-3.8132,-3.818,-3.8171,-3.8161,-3.817,-3.8265,-3.8282,-3.8227,-3.8394,-3.8335,-3.8348,-3.8379,-3.8397,-3.8411,-3.8403,-3.8165,0,0,0,0,0,-3.7924,-3.7987,-3.8015,-3.8109,-3.8128,-3.8138,-3.8172,-3.8164,-3.8201,-3.8215,-3.8235,-3.8271,-3.8327,-3.8363,-3.8416,-3.8529,-3.8534,-3.858,-3.8594,-3.8606,-3.8616,-3.8674,-3.8693,-3.8488,-3.8488,-3.8487,0,0,-3.798,-3.8007,-3.8047,-3.8122,-3.8149,-3.8212,-3.8151,-3.822,-3.8265,-3.8226,-3.8313,-3.8329,-3.8368,-3.847,-3.8516,-3.8487,-3.8675,-3.8618,-3.8627,-3.8631,-3.8685,-3.8704,-3.8722,-3.8494,-3.8493,-3.8492,0,0,-3.8112,-3.8141,-3.8221,-3.825,-3.8293,-3.8299,-3.8318,-3.8354,-3.8363,-3.8452,-3.8422,-3.8476,-3.8574,-3.8602,-3.8629,-3.8773,-3.8746,-3.8791,-3.8865,-3.8922,-3.8938,-3.8952,-3.8999,-3.9017,-3.8802,-3.8802,-3.8802,0,-3.8174,-3.8269,-3.8264,-3.8335,-3.8368,-3.8337,-3.8416,-3.8445,-3.8502,-3.8525,-3.8492,-3.8613,-3.8637,-3.8744,-3.8779,-3.8804,-3.8823,-3.8784,-3.8936,-3.895,-3.8963,-3.9008,-3.9027,-3.8807,-3.8807,-3.8806,-3.8806,0,-3.8342,-3.8408,-3.8468,-3.8525,-3.8565,-3.864,-3.8645,-3.8686,-3.8675,-3.8684,-3.8773,-3.8802,-3.8859,-3.8885,-3.8875,-3.899,-3.897,-3.8938,-3.8877,-3.8988,-3.903,-3.9047,-3.8814,-3.8812,-3.8811,-3.881,0,0,-3.8512,-3.8567,-3.8589,-3.8613,-3.8659,-3.8709,-3.8783,-3.8839,-3.8873,-3.8915,-3.8973,-3.9057,-3.9027,-3.9058,-3.9052,-3.9102,-3.921,-3.9063,-3.9063,-3.9085,-3.9334,-3.9355,-3.9375,-3.9194,-3.9197,-3.92,-3.9329,0,-3.8644,-3.8772,-3.8771,-3.8889,-3.8948,-3.892,-3.8984,-3.9018,-3.9029,-3.9079,-3.9091,-3.9149,-3.9107,-3.9125,-3.9174,-3.9186,-3.9259,-3.9178,-3.9245,-3.9248,-3.9232,-3.9398,-3.942,-3.954,-3.9346,-3.9349,-3.9351,0,-3.8813,-3.8861,-3.8985,-3.9021,-3.9046,-3.9103,-3.9154,-3.9204,-3.9242,-3.9246,-3.9281,-3.9267,-3.9339,-3.9281,-3.9379,-3.9324,-3.9352,-3.9363,-3.9367,-3.9369,-3.9302,-3.94,-3.9579,-3.9595,-3.9377,-3.9375,-3.9373,0,-3.892,-3.9016,-3.9102,-3.9124,-3.9169,-3.9209,-3.923,-3.9264,-3.9298,-3.9343,-3.9364,-3.9418,-3.9445,-3.9486,-3.9485,-3.9444,-3.9584,-3.9526,-3.9586,-3.9586,-3.9613,-3.961,-3.9794,-3.9639,-3.9639,-3.9638,-3.9638,0,-3.9064,-3.914,-3.915,-3.9202,-3.9286,-3.9284,-3.9366,-3.9383,-3.9414,-3.9467,-3.9448,-3.9498,-3.9497,-3.9548,-3.9549,-3.9628,-3.9642,-3.9645,-3.9643,-3.9644,-3.9643,-3.9659,-3.9649,-3.9643,-3.9642,-3.9641,-3.964,0,-3.9195,-3.9205,-3.9296,-3.9332,-3.9343,-3.9403,-3.9432,-3.9481,-3.9491,-3.9559,-3.9575,-3.959,-3.9649,-3.9654,-3.9723,-3.9723,-3.9818,-3.9809,-3.9805,-3.9802,-3.986,-3.9853,-4.0057,-4.0082,-3.9915,-3.9916,-3.9918,0,-3.9283,-3.9341,-3.9384,-3.9419,-3.9442,-3.9499,-3.9534,-3.9534,-3.9571,-3.9618,-3.9661,-3.9719,-3.9764,-3.9859,-3.9875,-3.9927,-3.9917,-3.9985,-3.9924,-3.9922,-3.9912,-3.9907,-3.9911,-3.9995,-3.9997,-3.9998,-4.0,0,-3.9439,-3.9441,-3.9492,-3.9546,-3.9588,-3.963,-3.9669,-3.9699,-3.9704,-3.9746,-3.9807,-3.9842,-3.9913,-3.9969,-4.002,-4.0039,-4.0019,-4.002,-4.0035,-4.0034,-4.0027,-4.0027,-3.9832,-4.0013,-4.0012,-4.0011,-4.001,-4.001,-3.9548,-3.9597,-3.9634,-3.9692,-3.9722,-3.9759,-3.9806,-3.9823,-3.9874,-3.9931,-3.9929,-3.9995,-4.003,-4.0097,-4.012,-4.0171,-4.0148,-4.0172,-4.0177,-4.0182,-4.0185,-4.0024,-4.0181,-4.018,-4.018,-4.018,-4.0179,0,-3.9698,-3.9721,-3.9775,-3.983,-3.9875,-3.9856,-3.9898,-3.9936,-3.9995,-4.0031,-4.0077,-4.0145,-4.02,-4.0221,-4.0274,-4.031,-4.0302,-4.0324,-4.0318,-4.0322,-4.0205,-4.0184,-4.0329,-4.0329,-4.0329,-4.0329,-4.0329,-4.0329,-3.9781,-3.9862,-3.9869,-3.9965,-3.9987,-4.0052,-4.0078,-4.0111,-4.0139,-4.0217,-4.0263,-4.0277,-4.0306,-4.0361,-4.041,-4.0414,-4.0433,-4.0457,-4.0457,-4.0346,-4.0331,-4.0317,-4.0296,-4.0462,-4.0463,-4.057,-4.0571,-4.0571]},{"header":{"parameterUnit":"m.s-1","parameterCategory":1,"la1":30.2991,"la2":30.254,"lo1":-89.0895,"lo2":-89.0444,"dy":0.0017,"dx":0.0017,"nx":28,"ny":28,"refTime":"2025-08-04T03:00:00:Z","depth":0,"parameterNumber":3,"parameterNumberName":"V-component_of_WINDS"},"data":[0,0,0,0,0,0,0,0,0,0,0,0,0,0,0,0,0,0,0,0,0,0,0,0,0,0,0,0,0,0,0,0,0,0,0,0,0,0,0,0,0,0,0,0,0,0,0,0,0,0,0,0,0,0,0,0,0,0,1.9113,1.9113,0,1.9128,1.9128,1.9129,1.912,1.9119,1.9119,1.9118,1.9132,1.9132,1.9133,0,0,0,0,0,0,0,0,0,0,0,0,0,1.9076,1.9077,1.9113,1.9113,1.9114,1.9128,1.9128,1.9129,1.912,1.9119,1.9119,1.9118,1.9131,1.9132,1.9133,0,0,0,0,0,0,0,0,0,0,0,0,0,1.9092,1.9077,1.9113,1.9111,1.9111,1.9128,1.9128,1.9129,1.912,1.9119,1.9118,1.9118,1.9131,1.9132,1.9133,1.9153,0,0,1.9137,1.9137,0,0,0,0,0,0,0,0,1.9091,1.9093,1.9111,1.9111,1.9111,1.9121,1.912,1.9137,1.912,1.9116,1.9118,1.9118,1.9129,1.913,1.9134,1.9153,1.9154,1.9137,1.9137,1.9138,1.9138,0,0,0,0,0,0,0,1.909,1.9092,1.9119,1.9111,1.9111,1.9109,1.911,1.9123,1.9126,1.9117,1.9116,1.9118,1.9128,1.9133,1.9134,1.9154,1.9137,1.9138,1.9138,1.9139,1.9191,1.9192,0,0,0,0,0,0,1.9089,1.9091,1.9119,1.912,1.9099,1.911,1.9112,1.9119,1.9126,1.9126,1.9119,1.9118,1.9131,1.9133,1.9135,1.9158,1.9138,1.9139,1.914,1.919,1.9191,1.9192,0,0,0,0,0,0,1.9088,1.9091,1.9118,1.9105,1.9109,1.9111,1.9119,1.9119,1.9124,1.9127,1.9127,1.9123,1.9131,1.9133,1.9149,1.9158,1.9139,1.914,1.9189,1.9191,1.9191,1.9205,0,0,0,0,0,0,1.9087,1.9091,1.9099,1.9106,1.9109,1.9132,1.912,1.912,1.9126,1.9125,1.9131,1.9131,1.9131,1.9147,1.915,1.916,1.9141,1.9188,1.919,1.9191,1.9204,1.9206,1.9209,0,0,0,0,0,1.9086,1.9101,1.9099,1.9103,1.9119,1.9133,1.9135,1.9134,1.9127,1.9134,1.9137,1.9131,1.9157,1.9149,1.9152,1.9162,1.9188,1.9189,1.9191,1.9203,1.9206,1.9209,0,0,0,0,0,0,1.9095,1.9102,1.91,1.9118,1.9125,1.9131,1.914,1.9137,1.9146,1.9144,1.9142,1.9144,1.916,1.9163,1.9153,1.9182,1.9171,1.9174,1.9179,1.9182,1.9185,1.9183,1.9142,0,0,0,0,0,1.9099,1.911,1.9116,1.9132,1.9135,1.9138,1.9143,1.9142,1.9149,1.9151,1.9155,1.9161,1.917,1.9177,1.9186,1.9205,1.9206,1.9213,1.9216,1.9218,1.9219,1.923,1.9233,1.9197,1.9197,1.9197,0,0,1.9107,1.9113,1.912,1.9134,1.9139,1.915,1.914,1.9152,1.916,1.9153,1.9168,1.9171,1.9178,1.9195,1.9203,1.9198,1.923,1.922,1.9221,1.9222,1.9232,1.9235,1.9238,1.9198,1.9198,1.9198,0,0,1.9129,1.9134,1.9148,1.9154,1.9162,1.9164,1.9167,1.9174,1.9176,1.9191,1.9187,1.9196,1.9213,1.9218,1.9222,1.9247,1.9242,1.925,1.9263,1.9273,1.9276,1.9278,1.9287,1.929,1.9252,1.9252,1.9252,0,1.9138,1.9155,1.9155,1.9168,1.9174,1.917,1.9184,1.9189,1.92,1.9204,1.9198,1.9219,1.9223,1.9242,1.9248,1.9252,1.9256,1.9249,1.9275,1.9278,1.928,1.9288,1.9291,1.9253,1.9253,1.9253,1.9253,0,1.9166,1.9178,1.9188,1.9199,1.9207,1.922,1.9222,1.9229,1.9228,1.923,1.9246,1.9251,1.9261,1.9266,1.9265,1.9285,1.9281,1.9276,1.9265,1.9284,1.9292,1.9295,1.9254,1.9254,1.9253,1.9253,0,0,1.9191,1.9204,1.9208,1.9213,1.9223,1.9232,1.9245,1.9256,1.9262,1.927,1.928,1.9295,1.929,1.9296,1.9295,1.9304,1.9323,1.9297,1.9297,1.9301,1.9345,1.9349,1.9352,1.9321,1.9321,1.9322,1.9344,0,1.9213,1.9236,1.9238,1.9259,1.927,1.9267,1.9279,1.9286,1.9288,1.9298,1.93,1.9311,1.9304,1.9307,1.9316,1.9319,1.9332,1.9317,1.933,1.933,1.9327,1.9356,1.936,1.9381,1.9347,1.9348,1.9348,0,1.924,1.925,1.9273,1.9282,1.9286,1.9297,1.9307,1.9316,1.9324,1.9326,1.9333,1.9331,1.9344,1.9334,1.9352,1.9342,1.9348,1.935,1.9351,1.9351,1.934,1.9357,1.9388,1.9391,1.9353,1.9353,1.9352,0,1.9256,1.9275,1.9291,1.9296,1.9307,1.9314,1.9319,1.9326,1.9333,1.9342,1.9346,1.9356,1.9362,1.937,1.9371,1.9363,1.9389,1.9379,1.9389,1.9389,1.9394,1.9393,1.9426,1.9399,1.9399,1.9399,1.9399,0,1.928,1.9293,1.9299,1.9309,1.9324,1.9326,1.9341,1.9345,1.9352,1.9362,1.936,1.937,1.9371,1.9381,1.9382,1.9396,1.9399,1.94,1.94,1.9399,1.9399,1.9402,1.94,1.94,1.9399,1.9399,1.9399,0,1.9299,1.9304,1.9321,1.933,1.9333,1.9344,1.9352,1.9361,1.9364,1.9377,1.938,1.9385,1.9396,1.9399,1.9412,1.9413,1.943,1.9429,1.9427,1.9427,1.9437,1.9436,1.9472,1.9477,1.9447,1.9448,1.9448,0,1.9313,1.9324,1.9335,1.9342,1.9348,1.9359,1.9367,1.9369,1.9376,1.9387,1.9395,1.9406,1.9416,1.9434,1.9438,1.9449,1.9447,1.9459,1.9448,1.9448,1.9447,1.9446,1.9447,1.9461,1.9461,1.9461,1.9461,0,1.9338,1.934,1.9351,1.9363,1.9372,1.9381,1.939,1.9395,1.9399,1.9407,1.942,1.9427,1.9442,1.9453,1.9463,1.9468,1.9465,1.9465,1.9468,1.9467,1.9466,1.9466,1.9432,1.9464,1.9464,1.9463,1.9463,1.9463,1.9355,1.9364,1.9374,1.9386,1.9394,1.9402,1.9411,1.9416,1.9427,1.9439,1.944,1.9454,1.9462,1.9476,1.9481,1.9491,1.9487,1.9491,1.9492,1.9493,1.9494,1.9465,1.9493,1.9493,1.9493,1.9493,1.9493,0,1.9379,1.9385,1.9397,1.941,1.9419,1.9418,1.9428,1.9436,1.9448,1.9456,1.9466,1.948,1.9491,1.9497,1.9508,1.9515,1.9514,1.9518,1.9517,1.9518,1.9497,1.9493,1.9518,1.9518,1.9518,1.9518,1.9518,1.9518,1.9392,1.9408,1.9412,1.9432,1.9438,1.9452,1.9458,1.9465,1.9472,1.9489,1.9498,1.9502,1.951,1.9521,1.9532,1.9533,1.9537,1.9541,1.9542,1.9522,1.9519,1.9517,1.9513,1.9542,1.9542,1.9561,1.9562,1.9562]}]]